sat.trackr.live / text

‹ back to catalog

STARLINK-34871

NORAD 65217 · 2025-176V

PAYLOAD ACTIVE UNKNOWN

§ Identity

Operator
Country
US
Launch date
2025-08-14
Launch site
AFETR
Launch vehicle
Mass (kg)
RCS (m²)

Purposes: comms

External: N2YO · Heavens-Above · Gunter

§ Orbital elements

Epoch: 2026-09-20T11:12:27.470304Z

Period
93.85 min
Inclination
53.1589°
Eccentricity
0.0001173
Mean motion
15.34403970 rev/d
Perigee alt
461.9 km
Apogee alt
463.5 km
Semi-major
6,840.8 km
B*
3.6422e-4
RAAN
323.6163°
Arg perigee
85.9048°
Mean anomaly
274.2088°
Rev number
6,300

§ Raw data

STARLINK-348711 65217U 25176V   26263.46698461  .00011951  00000+0  36422-3 0  99912 65217  53.1589 323.6163 0001173  85.9048 274.2088 15.34403970 63000

JSON: /api/v1/satellites/65217 · /tle

For live sub-satellite position, see the globe view (requires WebGL).

§ Visibility from observer

Set your observer location to see the next 7 days of passes ≥ 10°. The values pass through the URL so the page stays shareable.

No JS? Fill the form by hand. The geolocation button needs JavaScript.